TimeCST,TemperatureF,Dew PointF,Humidity,Sea Level PressureIn,VisibilityMPH,Wind Direction,Wind SpeedMPH,Gust SpeedMPH,PrecipitationIn,Events,Conditions,WindDirDegrees,DateUTC
12:15 AM,37.4,32.0,81,29.85,10.0,SE,12.7,-,N/A,,Mostly Cloudy,130,2012-12-15 06:15:00
12:35 AM,37.4,32.0,81,29.85,10.0,SE,11.5,-,N/A,,Overcast,130,2012-12-15 06:35:00
12:55 AM,37.4,32.0,81,29.84,10.0,SE,11.5,-,N/A,,Overcast,130,2012-12-15 06:55:00
1:15 AM,37.4,32.0,81,29.84,10.0,SE,11.5,-,N/A,,Overcast,130,2012-12-15 07:15:00
1:35 AM,37.4,32.0,81,29.83,10.0,SE,12.7,-,N/A,,Overcast,130,2012-12-15 07:35:00
1:55 AM,37.4,32.0,81,29.82,10.0,ESE,15.0,-,N/A,,Overcast,120,2012-12-15 07:55:00
2:15 AM,37.4,32.0,81,29.82,10.0,SE,13.8,-,N/A,,Overcast,130,2012-12-15 08:15:00
2:35 AM,37.4,33.8,87,29.81,10.0,SE,13.8,-,N/A,,Overcast,130,2012-12-15 08:35:00
2:55 AM,37.4,33.8,87,29.81,10.0,SE,16.1,-,N/A,,Overcast,130,2012-12-15 08:55:00
3:15 AM,37.4,33.8,87,29.80,10.0,ESE,15.0,-,N/A,,Overcast,120,2012-12-15 09:15:00
3:35 AM,37.4,35.6,93,29.78,10.0,SE,12.7,21.9,N/A,,Overcast,130,2012-12-15 09:35:00
3:55 AM,37.4,35.6,93,29.77,7.0,SE,11.5,-,N/A,,Overcast,130,2012-12-15 09:55:00
4:15 AM,35.6,35.6,100,29.77,5.0,SE,13.8,-,N/A,,Overcast,130,2012-12-15 10:15:00
4:35 AM,35.6,35.6,100,29.75,4.0,ESE,15.0,18.4,N/A,,Overcast,120,2012-12-15 10:35:00
4:55 AM,35.6,35.6,100,29.75,3.0,SE,15.0,-,N/A,,Overcast,130,2012-12-15 10:55:00
5:15 AM,35.6,35.6,100,29.73,4.0,SE,13.8,-,0.01,,Overcast,130,2012-12-15 11:15:00
5:35 AM,35.6,35.6,100,29.72,4.0,SE,17.3,21.9,0.02,,Overcast,130,2012-12-15 11:35:00
5:55 AM,35.6,35.6,100,29.69,4.0,ESE,15.0,20.7,0.04,,Overcast,120,2012-12-15 11:55:00
6:15 AM,35.6,35.6,100,29.68,5.0,ESE,18.4,23.0,0.01,,Overcast,120,2012-12-15 12:15:00
6:35 AM,35.6,35.6,100,29.68,5.0,ESE,17.3,25.3,0.02,,Overcast,120,2012-12-15 12:35:00
6:55 AM,35.6,35.6,100,29.67,7.0,ESE,15.0,20.7,0.02,,Overcast,120,2012-12-15 12:55:00
7:15 AM,35.6,35.6,100,29.66,5.0,ESE,15.0,20.7,N/A,,Overcast,120,2012-12-15 13:15:00
7:35 AM,35.6,35.6,100,29.65,3.0,ESE,15.0,24.2,0.02,,Overcast,120,2012-12-15 13:35:00
7:55 AM,35.6,35.6,100,29.66,2.0,SE,15.0,-,0.03,,Overcast,130,2012-12-15 13:55:00
8:15 AM,35.6,35.6,100,29.64,2.5,ESE,17.3,21.9,0.01,,Overcast,120,2012-12-15 14:15:00
8:35 AM,35.6,35.6,100,29.64,2.0,ESE,15.0,18.4,0.02,,Overcast,120,2012-12-15 14:35:00
8:55 AM,35.6,35.6,100,29.64,3.0,ESE,13.8,-,0.05,,Overcast,120,2012-12-15 14:55:00
9:15 AM,35.6,35.6,100,29.63,2.5,ESE,13.8,-,0.03,,Overcast,120,2012-12-15 15:15:00
9:35 AM,35.6,35.6,100,29.63,3.0,ESE,12.7,-,0.03,,Overcast,120,2012-12-15 15:35:00
9:55 AM,37.4,37.4,100,29.62,1.8,ESE,15.0,-,0.03,,Overcast,120,2012-12-15 15:55:00
10:15 AM,37.4,37.4,100,29.62,3.0,SE,13.8,-,0.01,,Overcast,130,2012-12-15 16:15:00
10:35 AM,37.4,37.4,100,29.60,3.0,SE,13.8,19.6,0.02,,Overcast,130,2012-12-15 16:35:00
10:55 AM,37.4,37.4,100,29.59,5.0,ESE,12.7,-,0.02,,Overcast,120,2012-12-15 16:55:00
11:15 AM,37.4,37.4,100,29.57,5.0,SE,12.7,-,N/A,,Overcast,130,2012-12-15 17:15:00
11:35 AM,37.4,37.4,100,29.57,5.0,SE,12.7,-,N/A,,Overcast,130,2012-12-15 17:35:00
11:55 AM,37.4,37.4,100,29.55,2.0,ESE,12.7,-,N/A,,Overcast,120,2012-12-15 17:55:00
12:15 PM,37.4,37.4,100,29.54,2.5,ESE,10.4,-,N/A,,Overcast,120,2012-12-15 18:15:00
12:35 PM,37.4,37.4,100,29.53,4.0,ESE,11.5,-,N/A,,Overcast,120,2012-12-15 18:35:00
12:55 PM,39.2,39.2,100,29.52,4.0,SE,8.1,-,N/A,,Overcast,130,2012-12-15 18:55:00
1:15 PM,39.2,39.2,100,29.51,4.0,SE,8.1,-,N/A,,Overcast,130,2012-12-15 19:15:00
1:35 PM,39.2,39.2,100,29.51,4.0,ESE,9.2,-,N/A,,Overcast,120,2012-12-15 19:35:00
1:55 PM,39.2,39.2,100,29.50,4.0,SE,6.9,-,N/A,,Overcast,130,2012-12-15 19:55:00
2:15 PM,39.2,39.2,100,29.50,3.0,SE,6.9,-,N/A,,Overcast,130,2012-12-15 20:15:00
2:35 PM,39.2,39.2,100,29.50,1.2,SE,4.6,-,N/A,,Overcast,130,2012-12-15 20:35:00
2:55 PM,41.0,41.0,100,29.50,0.5,SE,5.8,-,N/A,,Overcast,130,2012-12-15 20:55:00
3:15 PM,41.0,41.0,100,29.50,0.5,SE,5.8,-,N/A,,Overcast,140,2012-12-15 21:15:00
3:35 PM,41.0,41.0,100,29.50,0.2,SE,3.5,-,N/A,,Overcast,130,2012-12-15 21:35:00
3:55 PM,39.2,39.2,100,29.50,0.2,Calm,Calm,-,N/A,,Overcast,0,2012-12-15 21:55:00
4:15 PM,39.2,39.2,100,29.50,0.2,SSE,4.6,-,N/A,,Overcast,160,2012-12-15 22:15:00
4:35 PM,41.0,41.0,100,29.50,0.2,SE,4.6,-,N/A,,Overcast,140,2012-12-15 22:35:00
4:55 PM,39.2,39.2,100,29.51,0.2,SE,4.6,-,N/A,,Overcast,140,2012-12-15 22:55:00
5:15 PM,39.2,39.2,100,29.51,0.2,Calm,Calm,-,N/A,,Overcast,0,2012-12-15 23:15:00
5:55 PM,39.2,39.2,100,29.51,0.2,SSE,3.5,-,N/A,,Overcast,150,2012-12-15 23:55:00
6:15 PM,39.2,39.2,100,29.52,0.2,SSE,3.5,-,N/A,,Overcast,150,2012-12-16 00:15:00
6:35 PM,39.2,39.2,100,29.52,0.2,SSE,3.5,-,N/A,,Overcast,150,2012-12-16 00:35:00
6:55 PM,39.2,39.2,100,29.51,0.2,East,4.6,-,N/A,,Overcast,90,2012-12-16 00:55:00
7:15 PM,39.2,39.2,100,29.52,0.2,South,3.5,-,N/A,,Overcast,190,2012-12-16 01:15:00
7:35 PM,39.2,39.2,100,29.51,0.2,SE,3.5,-,N/A,,Overcast,140,2012-12-16 01:35:00
7:55 PM,39.2,39.2,100,29.52,0.2,South,4.6,-,N/A,,Overcast,190,2012-12-16 01:55:00
8:15 PM,41.0,41.0,100,29.52,0.2,SSW,5.8,-,N/A,,Overcast,200,2012-12-16 02:15:00
8:55 PM,41.0,41.0,100,29.51,0.2,South,3.5,-,N/A,,Overcast,190,2012-12-16 02:55:00
9:15 PM,41.0,41.0,100,29.51,0.2,South,3.5,-,N/A,,Overcast,180,2012-12-16 03:15:00
9:35 PM,41.0,41.0,100,29.50,0.2,South,3.5,-,N/A,,Overcast,180,2012-12-16 03:35:00
9:55 PM,41.0,41.0,100,29.50,0.2,Calm,Calm,-,N/A,,Overcast,0,2012-12-16 03:55:00
10:15 PM,41.0,41.0,100,29.49,0.2,Calm,Calm,-,N/A,,Overcast,0,2012-12-16 04:15:00
10:35 PM,41.0,41.0,100,29.49,0.2,Calm,Calm,-,N/A,,Overcast,0,2012-12-16 04:35:00
10:55 PM,41.0,41.0,100,29.50,0.2,South,3.5,-,N/A,,Overcast,170,2012-12-16 04:55:00
11:15 PM,41.0,41.0,100,29.50,0.2,SSE,3.5,-,N/A,,Overcast,160,2012-12-16 05:15:00
11:35 PM,41.0,41.0,100,29.50,0.5,Calm,Calm,-,N/A,,Overcast,0,2012-12-16 05:35:00
11:55 PM,41.0,41.0,100,29.49,0.5,Calm,Calm,-,N/A,,Overcast,0,2012-12-16 05:55:00